Temp
10 10 10 10 10 11 11 11 11 11 12 11 11 12 12 12 12 12 12 12 12 11
11 10 10 11 12 12 11 10 10 11 12 12 10 11 11 12 11 11 11 12 11 11
11 11 11 11 11 11 11 11 11 11 10 11 10 10 11 12 11 10 11 11 11 10
11 10 10 10 10 10 10 10 11 10 11 11 12 11 10 11 11 11 10 10 10 10
10 10 10 10 11 11 11 11 11 12 12 11 11 10 10 10 10 10 10 10 10 10
10 10 10 9 10 10 10 10 10 10 10 11 11 11 10 9 10 9 10 10 10 10
9 9 10 10 10 10 10 10 10 10 10 10 10 10 9 8 8 8 9 9 9 9
9 9 9 9 9 9 9 9 9 9 8 8 8 8 8 7 7 8 8 8 9 9
8 8 8 9 9 9 8 8 8 8 8 8 7 7 7 7 7 7 8 8 8 8
7 8 8 8 8 7 7 7 7 7 7 7 7 6 6 6 6 5 6 6 6 6
5 5 5 5 5 6 6 6 6 6 6 6 6 5 4 4 4 4 5 4 4 5
4 4 4 3 3 4 4 4 5 5 5 5 5 5 4 3 3 3 3 4 4 4
2 3 3 2 1 0 0 1 1 1 1 1 1 1 1 1 2 3 3 3 3 3
3 3 2 1 -0 0 -0 -1 -1 -1 -1 -1 0 1 1 1 2 2 2 2 3 2
Height
1462 1465 1471 1476 1481 1484 1487 1490 1494 1496 1498 1500 1503 1504 1504 1505 1505 1506 1505 1504 1506 1506
1464 1468 1473 1477 1479 1481 1484 1486 1489 1491 1493 1494 1495 1496 1498 1497 1498 1498 1497 1497 1498 1500
1468 1469 1470 1475 1478 1479 1480 1482 1485 1487 1489 1490 1490 1490 1490 1489 1490 1491 1490 1492 1493 1494
1465 1468 1471 1473 1474 1477 1478 1479 1480 1482 1484 1483 1484 1485 1485 1483 1483 1484 1485 1486 1487 1487
1467 1469 1468 1471 1474 1476 1476 1478 1478 1479 1478 1477 1478 1478 1479 1477 1478 1477 1478 1479 1479 1478
1468 1468 1471 1474 1474 1475 1476 1475 1476 1474 1474 1473 1472 1472 1470 1471 1471 1471 1470 1471 1471 1469
1470 1471 1473 1473 1473 1474 1474 1473 1473 1472 1471 1470 1469 1467 1465 1466 1465 1464 1462 1463 1465 1465
1472 1475 1475 1475 1474 1472 1472 1468 1466 1466 1467 1465 1461 1462 1461 1461 1460 1460 1457 1456 1456 1457
1473 1473 1472 1471 1469 1469 1465 1463 1461 1460 1460 1460 1458 1457 1455 1455 1453 1453 1451 1450 1449 1451
1471 1469 1467 1468 1466 1463 1460 1460 1459 1458 1453 1450 1453 1451 1451 1450 1447 1447 1445 1443 1444 1444
1467 1466 1468 1467 1462 1460 1457 1455 1455 1450 1446 1442 1445 1447 1446 1444 1440 1439 1438 1437 1439 1438
1464 1461 1459 1457 1456 1454 1452 1452 1448 1445 1441 1439 1439 1440 1440 1436 1434 1432 1432 1431 1431 1431
1462 1458 1454 1451 1453 1450 1444 1444 1441 1436 1435 1434 1432 1432 1433 1427 1426 1424 1422 1424 1423 1425
1457 1454 1452 1449 1449 1444 1441 1440 1436 1433 1434 1432 1429 1425 1425 1421 1420 1418 1417 1416 1413 1415
Wind_Speed
11 10 10 9 11 12 16 21 30 25 20 20 24 27 27 28 28 29 28 30 31 28
3 8 12 12 10 15 17 19 22 25 26 25 25 26 27 27 34 36 32 31 24 27
8 10 12 15 15 17 18 20 24 24 26 25 23 28 27 26 29 31 25 29 29 29
2 4 6 8 9 10 11 10 14 20 27 29 29 30 34 32 33 35 29 34 33 33
5 4 2 3 5 6 7 9 11 13 17 20 23 24 24 25 29 31 36 40 39 40
7 6 3 2 3 6 7 8 10 12 14 15 17 20 22 25 27 28 29 32 36 41
11 9 6 5 5 7 9 10 11 14 16 17 18 19 18 20 24 27 28 30 31 34
9 7 6 6 6 7 9 10 11 13 15 16 16 17 18 20 21 24 26 27 28 29
8 9 11 12 12 12 12 12 13 15 17 18 19 18 19 20 22 23 26 27 27 29
11 12 13 15 16 17 17 18 18 18 17 18 20 20 21 22 24 24 24 24 24 25
12 13 13 14 15 16 17 18 21 22 22 22 22 22 23 23 24 25 25 25 26 27
14 15 17 19 19 18 18 19 21 23 25 26 26 25 25 25 27 27 27 25 26 27
17 17 18 19 21 20 21 22 21 21 20 22 24 23 23 21 27 30 30 29 28 29
22 21 21 21 21 22 24 23 22 23 22 22 24 25 24 24 24 27 30 31 31 29
Wind_Direction
133 139 150 159 190 210 233 235 229 237 238 232 254 252 242 238 247 253 257 261 254 247
340 236 214 205 191 208 248 241 238 247 252 255 256 238 245 253 260 258 258 259 249 250
182 177 180 188 230 264 268 255 244 246 244 260 267 243 244 257 264 258 257 247 251 256
165 166 192 221 245 256 267 265 256 252 255 260 260 254 260 263 265 264 261 246 248 252
123 150 163 225 243 261 272 274 275 269 262 257 257 257 262 264 264 266 263 258 254 250
64 56 47 334 301 293 284 282 275 268 265 263 262 261 258 257 257 257 263 270 259 255
62 52 33 359 328 302 293 288 288 289 288 287 286 282 275 264 262 259 257 259 261 256
42 25 13 357 343 329 313 302 294 290 288 287 286 286 284 278 270 266 266 263 264 260
348 337 331 327 320 312 312 312 309 299 291 289 289 287 283 280 276 272 268 267 264 261
325 319 316 310 305 304 305 302 298 295 296 293 288 284 283 283 282 279 276 273 267 261
334 328 319 313 313 306 298 296 293 291 292 292 290 283 277 278 278 278 275 272 269 264
335 334 333 331 321 313 311 305 299 298 296 294 287 285 282 278 277 275 275 274 272 266
338 332 328 323 321 323 322 314 310 305 303 302 298 296 299 298 285 278 274 272 270 268
326 323 319 314 309 314 316 314 317 317 313 299 285 284 286 288 289 285 282 279 275 271